Regional Weather Roundup
Issued by NWS

Home | Current Version | Previous Version | Text Only | Print | Product List | Glossary Off
Versions: 1 2 3 4 5 6 7 8 9 10 11 12 13 14 15 16 17 18 19 20 21 22 23 24 25 26 27 28 29 30 31 32 33 34 35 36 37 38 39 40 41 42 43 44 45 46 47 48 49 50

000
ASUS43 KMKX 241721
RWRWI

WISCONSIN REGIONAL WEATHER ROUNDUP
NATIONAL WEATHER SERVICE MILWAUKEE/SULLIVAN WI
1100 AM CST WED DEC 24 2014

NOTE: "FAIR" INDICATES FEW OR NO CLOUDS BELOW 12,000 FEET WITH NO
SIGNIFICANT WEATHER AND/OR OBSTRUCTIONS TO VISIBILITY.

WIZ001-002-006>008-014>016-023>028-241800-
NORTHWEST WISCONSIN

CITY           SKY/WX    TMP DP  RH WIND       PRES   REMARKS
SUPERIOR ARPT  CLOUDY    35  30  83 NW7       29.72F WCI  29
ASHLAND        LGT SNOW  33  32  96 N5        29.71F FOG     WCI  29
HAYWARD        LGT SNOW  34  31  88 CALM      29.68F FOG
SIREN          CLOUDY    34  32  94 NW3       29.72F
CUMBERLAND     CLOUDY    32  30  93 N7        29.69F WCI  26
RICE LAKE      CLOUDY    34  31  88 NW7       29.71F WCI  28
CHETEK         CLOUDY    34  32  94 CALM      29.69F
LADYSMITH      CLOUDY    34  31  91 NW7       29.69F WCI  28
EAU CLAIRE     CLOUDY    35  30  82 N8        29.68F WCI  29
MENOMONIE      CLOUDY    36  32  87 NW8       29.70F WCI  29
NEW RICHMOND   CLOUDY    35  32  91 NW8       29.72F WCI  28
OSCEOLA        CLOUDY    36  34  94 N6        29.75F WCI  31
$$

WIZ003>005-009-010-017-018-241800-
NORTH CENTRAL WISCONSIN

CITY           SKY/WX    TMP DP  RH WIND       PRES   REMARKS
MANITOWISH WTR LGT SNOW  30  30 100 N5        29.63F WCI  25
ARBOR VITAE    CLOUDY    32  30  92 N10       29.62F WCI  23
WOODRUFF       CLOUDY    32  30  92 N10       29.62F WCI  23
RHINELANDER    CLOUDY    31  29  92 VRB3      29.61F FOG
EAGLE RIVER    LGT SNOW  31  31  97 N8        29.60F WCI  24
LAND O LAKES   LGT SNOW  32  30  93 N6        29.62F WCI  26
PHILLIPS       LGT SNOW  31  29  93 N5        29.64F WCI  26
TOMAHAWK       CLOUDY    32  30  92 CALM      29.62F
MEDFORD        CLOUDY    32  30  93 N8        29.62F WCI  25
MERRILL        LGT SNOW  33  32  98 N6        29.61F WCI  27
$$

WIZ029-030-035-036-043>047-241800-
CENTRAL WISCONSIN

CITY           SKY/WX    TMP DP  RH WIND       PRES   REMARKS
WAUSAU         CLOUDY    33  31  92 N6        29.60F WCI  28
MOSINEE        CLOUDY    32  32 100 N7        29.62F WCI  26
MARSHFIELD     LGT SNOW  35  31  85 N7        29.61F FOG     WCI  29
STEVENS POINT  LGT RAIN  31  31 100 N6        29.60F WCI  26
WAUPACA        LGT RAIN  35  34  96 NW3       29.60F
WAUTOMA        CLOUDY    36  36 100 N7        29.60F FOG     WCI  30
WISC RAPIDS    CLOUDY    34  31  88 N10       29.62F WCI  26
CAMP DOUGLAS   CLOUDY    34  34 100 NW7       29.61F WCI  28
$$

WIZ011>013-019>022-031-037>040-048>050-241800-
NORTHEAST WISCONSIN

CITY           SKY/WX    TMP DP  RH WIND       PRES   REMARKS
ANTIGO         LGT SNOW  31  31  99 N7        29.59F WCI  25
SHAWANO        CLOUDY    35  34  96 N7        29.59F WCI  29
OCONTO         CLOUDY    34  34 100 N5        29.58F WCI  30
STURGEON BAY   CLOUDY    36  32  87 N6        29.58F WCI  31
GREEN BAY      FOG       35  34  96 N6        29.59F VSB 1/4 WCI  30
MANITOWOC      CLOUDY    38  37  97 N5        29.59F FOG     WCI  34
APPLETON       FOG       34  34 100 N8        29.60F VSB 3/4 WCI  27
CLINTONVILLE   CLOUDY    32  32 100 N5        29.60F FOG     WCI  27
OSHKOSH        FOG       35  34  96 NW5       29.58F VSB 1/4 WCI  31
$$

WIZ032>034-041-042-053>061-241800-
SOUTHWEST WISCONSIN

CITY           SKY/WX    TMP DP  RH WIND       PRES   REMARKS
LA CROSSE      CLOUDY    37  32  82 N10       29.65F WCI  30
SPARTA         CLOUDY    34  33  98 N7        29.65F WCI  28
VIROQUA        CLOUDY    32  32 100 N10       29.61F WCI  24
BOSCOBEL       CLOUDY    37  32  82 N9        29.63F WCI  30
PRAIRIE DU CHI CLOUDY    35  32  88 NW7       29.64F WCI  29
PLATTEVILLE    CLOUDY    34  32  92 CALM      29.62F
$$

WIZ056-057-062-063-064-067-068-241800-
SOUTH CENTRAL WISCONSIN

CITY           SKY/WX    TMP DP  RH WIND       PRES   REMARKS
REEDSBURG      CLOUDY    33  32  98 NW6       29.60F WCI  27
BARABOO/DELLS  DRIZZLE   33  33  99 N5        29.59F WCI  29
LONE ROCK      CLOUDY    39  32  76 NW6       29.62F WCI  35
MINERAL POINT  CLOUDY    34  34 100 N6        29.60F WCI  29
MADISON        CLOUDY    35  33  92 N6        29.59F WCI  30
MIDDLETON      CLOUDY    36  36 100 N3        29.60F
WATERTOWN      FOG       35  35 100 NW3       29.58F VSB 1/2
MONROE         CLOUDY    34  34 100 N6        29.58F WCI  29
JANESVILLE     CLOUDY    37  36  93 NW6       29.58F FOG     WCI  33
$$

WIZ051-052-058>065-066-070>072-241800-
SOUTHEAST WISCONSIN

CITY           SKY/WX    TMP DP  RH WIND       PRES   REMARKS
MILWAUKEE      CLOUDY    37  34  89 W5        29.59F FOG     WCI  33
WAUKESHA       CLOUDY    36  36 100 CALM      29.59F
MILWAUKEE/TIMM CLOUDY    36  34  93 CALM      29.60F FOG
RACINE         CLOUDY    37  34  89 NW8       29.59F WCI  31
BURLINGTON     CLOUDY    34  34 100 NW3       29.57F
KENOSHA        CLOUDY    37  35  92 NW7       29.57F WCI  32
FOND DU LAC    FOG       36  34  92 N3        29.59F VSB 1/4
SHEBOYGAN      CLOUDY    38  35  89 NW5       29.58F WCI  34
WEST BEND      CLOUDY    36  34  93 NW3       29.58F FOG
JUNEAU         FOG       34  34 100 NW5       29.60F VSB 1/4 WCI  30
$$

LSZ147-162-241800-
LAKE SUPERIOR

STATION/POSITION TIME  TEMP    WIND        PRES    WAVE
                       AIR SEA DIR/SP/G            HT/PER
                 (UTC) (F)     (DEG/KT/KT) (MB)    (FT/S)
DEVILS ISLAND    1700   34     100/ 11/ 12 1006.5F
PORT WING        1600   36      10/  9/ 10 1007.5S
SAXON HARBOR     1640   33        CALM     1006.1F
$$

LMZ867-665-643>646-241800-
LAKE MICHIGAN

STATION/POSITION TIME  TEMP    WIND        PRES    WAVE
                       AIR SEA DIR/SP/G            HT/PER
                 (UTC) (F)     (DEG/KT/KT) (MB)    (FT/S)
CHAMBERS ISLAND  1600   34     360/  8/  9 1003.0F
NORTHPORT PIER   1700   35     340/  8/ 24 1001.7F
SISTER BAY       1613          360/  7/ 10   N/A
ALGOMA LAKESHORE 1615          320/  5/  6   N/A
KEWAUNEE LAKESHO 1700   37      CALM  /  3 1001.2F
SHEBOYGAN LAKESH 1700   38 36  320/  1/  2 1002.4F
PORT WASHINGTON  1700   38     310/  2/  9 1002.7F
MILWAUKEE LAKESH 1700   37     310/  4/  5   N/A
KENOSHA   LAKESH 1700   37     300/  9/ 10 1001.4F
$$

TC  - TEMPERATURE IN CELSIUS
VSB - VISIBILITY IN STATUTE MILES
WCI - WIND CHILL INDEX
HX  - HEAT INDEX




USA.gov is the U.S. government's official web portal to all federal, state and local government web resources and services.